Tracking 20942 objects as of 13-Jul-2020
HD Live streaming from Space Station
objects crossing your sky now

THOR ABLESTAR DEB

Track THOR ABLESTAR DEB now!
10-day predictions


NORAD ID: 121
Int'l Code: 1961-015F
Perigee: 839.1 km
Apogee: 964.9 km
Inclination: 66.7 °
Period: 102.9 minutes
Semi major axis: 7272 km
RCS: 0.26 m2 (medium)
Launch date: June 29, 1961
Source: United States (US)
Launch site: AIR FORCE EASTERN TEST RANGE (AFETR)

Note: This is SATELLITE DEBRIS
aabbcc
Your satellite tracking list
Your tracking list is empty




NASA's NSSDC Master Catalog

Two Line Element Set (TLE):
1   121U 61015F   20194.56372254 -.00000066 +00000-0 +87453-5 0  9992
2   121 066.7482 021.9409 0086516 076.1808 284.8883 13.99691966023241
Source of the keplerian elements: AFSPC